• In Uzbekistan
  • List of Countries
  • For 7 days
  • Water Temperature
  • Satellite Maps
  • Weather Map
  • Weather Widgets
  • user-avatar
    Login

    Hourly Weather Jiquipilas

    Today, 21 October, Sunday

    Time Temperature Precipitation Wind Pressure Humidity
    00:00 +23°C° 0.9 mm 1 mps 715 mmHg 98%
    01:00 +23°C° 0.4 mm 1 mps 714 mmHg 98%
    02:00 +23°C° 0.4 mm 1 mps 714 mmHg 98%
    03:00 +23°C° 0.4 mm 1 mps 714 mmHg 98%
    04:00 +23°C° 0.1 mm 1 mps 714 mmHg 98%
    05:00 +23°C° 0.1 mm 1 mps 714 mmHg 98%
    06:00 +23°C° 0.1 mm 1 mps 714 mmHg 98%
    07:00 +24°C° 0.1 mm 1 mps 715 mmHg 96%
    08:00 +25°C° 0.1 mm 2 mps 715 mmHg 94%
    09:00 +26°C° 0.1 mm 2 mps 716 mmHg 91%
    10:00 +26°C° 0.1 mm 2 mps 715 mmHg 87%
    11:00 +27°C° 0.1 mm 2 mps 715 mmHg 83%
    12:00 +28°C° 0.1 mm 3 mps 715 mmHg 78%
    13:00 +28°C° 0.1 mm 3 mps 714 mmHg 79%
    14:00 +28°C° 0.1 mm 2 mps 714 mmHg 79%
    15:00 +28°C° 0.1 mm 2 mps 713 mmHg 79%
    16:00 +27°C° 0.1 mm 2 mps 713 mmHg 84%
    17:00 +26°C° 0.1 mm 2 mps 713 mmHg 88%
    18:00 +24°C° 0.1 mm 2 mps 713 mmHg 93%
    19:00 +24°C° 0 mm 2 mps 714 mmHg 94%
    20:00 +24°C° 0 mm 2 mps 715 mmHg 95%
    21:00 +23°C° 0 mm 2 mps 715 mmHg 96%
    22:00 +23°C° 0.1 mm 2 mps 715 mmHg 96%
    23:00 +23°C° 0.1 mm 1 mps 715 mmHg 96%

    Tomorrow, 22 October, Monday

    Time Temperature Precipitation Wind Pressure Humidity
    00:00 +23°C° 0.1 mm 1 mps 715 mmHg 96%
    01:00 +23°C° 0.1 mm 1 mps 715 mmHg 96%
    02:00 +23°C° 0.1 mm 1 mps 714 mmHg 96%
    03:00 +23°C° 0.1 mm 1 mps 714 mmHg 96%
    04:00 +22°C° 0.1 mm 1 mps 714 mmHg 96%
    05:00 +22°C° 0.1 mm 1 mps 714 mmHg 96%
    06:00 +22°C° 0.1 mm 1 mps 715 mmHg 96%
    07:00 +23°C° 0 mm 1 mps 715 mmHg 93%
    08:00 +24°C° 0 mm 1 mps 716 mmHg 89%
    09:00 +25°C° 0 mm 2 mps 716 mmHg 85%
    10:00 +27°C° 0 mm 2 mps 716 mmHg 79%
    11:00 +28°C° 0 mm 2 mps 716 mmHg 73%
    12:00 +29°C° 0 mm 2 mps 716 mmHg 67%
    13:00 +29°C° 0 mm 2 mps 715 mmHg 68%
    14:00 +29°C° 0 mm 2 mps 714 mmHg 69%
    15:00 +29°C° 0 mm 2 mps 714 mmHg 70%
    16:00 +28°C° 0.1 mm 2 mps 714 mmHg 77%
    17:00 +26°C° 0.1 mm 1 mps 714 mmHg 85%
    18:00 +24°C° 0.1 mm 1 mps 714 mmHg 93%
    19:00 +24°C° 0.1 mm 1 mps 714 mmHg 94%
    20:00 +24°C° 0.1 mm 1 mps 715 mmHg 96%
    21:00 +23°C° 0.1 mm 1 mps 716 mmHg 97%
    22:00 +23°C° 0 mm 1 mps 716 mmHg 97%
    23:00 +23°C° 0 mm 1 mps 716 mmHg 97%

    Day after tomorrow, 23 October, Tuesday

    Time Temperature Precipitation Wind Pressure Humidity
    00:00 +23°C° 0 mm 1 mps 716 mmHg 97%
    01:00 +23°C° 0 mm 1 mps 715 mmHg 97%
    02:00 +23°C° 0 mm 1 mps 715 mmHg 97%
    03:00 +23°C° 0 mm 1 mps 714 mmHg 97%
    04:00 +23°C° 0 mm 1 mps 715 mmHg 97%
    05:00 +23°C° 0 mm 1 mps 715 mmHg 97%
    06:00 +23°C° 0 mm 1 mps 715 mmHg 96%
    07:00 +24°C° 0 mm 1 mps 715 mmHg 92%
    08:00 +25°C° 0 mm 1 mps 716 mmHg 87%
    09:00 +26°C° 0 mm 1 mps 716 mmHg 83%
    10:00 +27°C° 0 mm 1 mps 716 mmHg 78%
    11:00 +29°C° 0 mm 2 mps 715 mmHg 73%
    12:00 +30°C° 0 mm 2 mps 715 mmHg 68%
    13:00 +30°C° 0 mm 2 mps 714 mmHg 68%
    14:00 +30°C° 0 mm 2 mps 714 mmHg 69%
    15:00 +30°C° 0 mm 2 mps 713 mmHg 69%
    16:00 +28°C° 0.1 mm 2 mps 713 mmHg 77%
    17:00 +27°C° 0.1 mm 1 mps 713 mmHg 85%
    18:00 +25°C° 0.1 mm 1 mps 713 mmHg 92%
    19:00 +25°C° 0.1 mm 1 mps 714 mmHg 94%
    20:00 +24°C° 0.1 mm 1 mps 714 mmHg 96%
    21:00 +24°C° 0.1 mm 1 mps 715 mmHg 97%
    22:00 +24°C° 0 mm 1 mps 715 mmHg 97%
    23:00 +23°C° 0 mm 1 mps 715 mmHg 98%

    24 October, Wednesday

    Time Temperature Precipitation Wind Pressure Humidity
    00:00 +23°C° 0 mm 1 mps 715 mmHg 98%
    01:00 +23°C° 0 mm 1 mps 715 mmHg 98%
    02:00 +23°C° 0 mm 1 mps 714 mmHg 98%
    03:00 +23°C° 0 mm 1 mps 714 mmHg 97%
    04:00 +23°C° 0 mm 1 mps 714 mmHg 97%
    05:00 +21°C° 0 mm 0 mps 714 mmHg 97%
    06:00 +21°C° 0 mm 0 mps 714 mmHg 97%
    07:00 +24°C° 0 mm 1 mps 715 mmHg 91%
    08:00 +26°C° 0 mm 1 mps 715 mmHg 86%
    09:00 +27°C° 0 mm 1 mps 715 mmHg 80%
    10:00 +29°C° 0 mm 1 mps 715 mmHg 72%
    11:00 +31°C° 0 mm 1 mps 715 mmHg 64%
    12:00 +32°C° 0 mm 1 mps 715 mmHg 56%
    13:00 +32°C° 0 mm 1 mps 714 mmHg 57%
    14:00 +32°C° 0 mm 1 mps 714 mmHg 57%
    15:00 +32°C° 0 mm 1 mps 713 mmHg 58%
    16:00 +30°C° 0 mm 1 mps 713 mmHg 67%
    17:00 +28°C° 0 mm 1 mps 713 mmHg 77%
    18:00 +26°C° 0 mm 1 mps 713 mmHg 86%
    19:00 +23°C° 0 mm 0 mps 713 mmHg 89%
    20:00 +22°C° 0 mm 0 mps 714 mmHg 93%
    21:00 +22°C° 0 mm 0 mps 714 mmHg 96%
    22:00 +22°C° 0 mm 0 mps 714 mmHg 96%
    23:00 +22°C° 0 mm 0 mps 714 mmHg 97%

    25 October, Thursday

    Time Temperature Precipitation Wind Pressure Humidity
    00:00 +21°C° 0 mm 0 mps 714 mmHg 97%
    01:00 +21°C° 0 mm 0 mps 714 mmHg 97%
    02:00 +21°C° 0 mm 0 mps 714 mmHg 97%
    03:00 +21°C° 0 mm 0 mps 713 mmHg 97%
    04:00 +21°C° 0 mm 0 mps 713 mmHg 97%
    05:00 +21°C° 0 mm 0 mps 714 mmHg 96%
    06:00 +23°C° 0 mm 1 mps 714 mmHg 96%
    07:00 +24°C° 0 mm 1 mps 714 mmHg 91%
    08:00 +26°C° 0 mm 1 mps 715 mmHg 85%
    09:00 +28°C° 0 mm 1 mps 715 mmHg 79%
    10:00 +29°C° 0 mm 1 mps 715 mmHg 72%
    11:00 +31°C° 0 mm 1 mps 714 mmHg 64%
    12:00 +33°C° 0 mm 1 mps 714 mmHg 56%
    13:00 +32°C° 0.1 mm 1 mps 714 mmHg 58%
    14:00 +32°C° 0.1 mm 1 mps 713 mmHg 60%
    15:00 +31°C° 0.1 mm 1 mps 712 mmHg 62%
    16:00 +30°C° 0.3 mm 1 mps 712 mmHg 72%
    17:00 +28°C° 0.3 mm 1 mps 713 mmHg 81%
    18:00 +26°C° 0.3 mm 1 mps 713 mmHg 90%
    19:00 +25°C° 0 mm 1 mps 713 mmHg 92%
    20:00 +25°C° 0 mm 1 mps 714 mmHg 95%
    21:00 +24°C° 0 mm 1 mps 714 mmHg 97%
    22:00 +24°C° 0 mm 1 mps 714 mmHg 97%
    23:00 +24°C° 0 mm 1 mps 714 mmHg 98%

    26 October, Friday

    Time Temperature Precipitation Wind Pressure Humidity
    00:00 +24°C° 0 mm 1 mps 714 mmHg 98%
    01:00 +23°C° 0 mm 1 mps 713 mmHg 98%
    02:00 +23°C° 0 mm 1 mps 713 mmHg 98%
    03:00 +23°C° 0 mm 1 mps 713 mmHg 97%
    04:00 +23°C° 0.1 mm 1 mps 713 mmHg 97%
    05:00 +23°C° 0.1 mm 1 mps 713 mmHg 97%
    06:00 +23°C° 0.1 mm 1 mps 713 mmHg 97%
    07:00 +24°C° 0 mm 1 mps 714 mmHg 92%
    08:00 +25°C° 0 mm 1 mps 714 mmHg 87%
    09:00 +27°C° 0 mm 1 mps 715 mmHg 82%
    10:00 +28°C° 0 mm 1 mps 714 mmHg 76%
    11:00 +29°C° 0 mm 1 mps 714 mmHg 69%
    12:00 +31°C° 0 mm 2 mps 714 mmHg 62%
    13:00 +31°C° 0.1 mm 2 mps 713 mmHg 63%
    14:00 +31°C° 0.1 mm 2 mps 713 mmHg 63%
    15:00 +31°C° 0.1 mm 2 mps 712 mmHg 63%
    16:00 +29°C° 0 mm 2 mps 712 mmHg 72%
    17:00 +27°C° 0 mm 1 mps 712 mmHg 81%
    18:00 +25°C° 0 mm 1 mps 712 mmHg 90%
    19:00 +25°C° 0 mm 1 mps 713 mmHg 92%
    20:00 +24°C° 0 mm 1 mps 713 mmHg 94%
    21:00 +24°C° 0 mm 1 mps 714 mmHg 97%
    22:00 +24°C° 0.1 mm 1 mps 714 mmHg 97%
    23:00 +23°C° 0.1 mm 1 mps 714 mmHg 97%
    Show more